Weather History for Aulavik National Park, NT

Change the Weather History Date:

Friday, March 21, 2014

  Actual Average Record
Temperature  
Mean Temperature 0 °F -  
Max Temperature 5 °F - - ()
Min Temperature -5 °F - - ()
Degree Days  
Heating Degree Days 65    
Moisture  
Dew Point -4 °F    
Average Humidity 81    
Maximum Humidity 86    
Minimum Humidity 65    
Precipitation  
Precipitation 0.00 in - - ()
Sea Level Pressure  
Sea Level Pressure 30.34 in    
Wind  
Wind Speed 17 mph ()    
Max Wind Speed 36 mph    
Max Gust Speed 33 mph    
T = Trace of Precipitation, MM = Missing Value Source: Averaged Metar Reports

Daily Weather History Graph

Daily Weather History Graph

Search for Another Location

Airport:

Trip Planner

Search our weather history database for the weather conditions in past years. The results will help you decide how hot, cold, wet, or windy it might be!

Date:

Astronomy

Mar. 21, 2014 Rise Set
Actual Time 7:50 AM MDT 8:26 PM MDT
Civil Twilight 6:32 AM MDT 9:45 PM MDT
Nautical Twilight 4:42 AM MDT 11:38 PM MDT
Astronomical Twilight Sun does not rise Sun does not rise
Moon No Moon Rise No Moon Set
Length of Visible Light 15h 13m
Length of Day
12h 36m
Waning Gibbous, 75% of the Moon is Illuminated
Mar 21
Waning Gibbous
Mar 23
Last Quarter
Mar 30
New
Apr 7
First Quarter
Apr 15
Full

Hourly Weather History & Observations

Time (MDT) Temp. Windchill Dew Point Humidity Pressure Visibility Wind Dir Wind Speed Gust Speed Precip Events Conditions
12:00 AM -3 °F - -7 °F 73% 30.51 in - West 21.9 mph - -  
12:00 AM -3.3 °F -27.6 °F -7.2 °F 83% 30.51 in - West 23.0 mph - N/A   Unknown
1:00 AM -4.7 °F -28.5 °F -8.9 °F 82% 30.49 in - West 20.7 mph 33.4 mph N/A   Unknown
2:00 AM -5.1 °F -29.0 °F -9.2 °F 82% 30.49 in - West 20.7 mph - N/A   Unknown
3:00 AM -4.9 °F -18.8 °F -9.0 °F 82% 30.50 in - East 6.9 mph 27.6 mph N/A   Unknown
4:00 AM -4.9 °F -25.6 °F -9.8 °F 80% 30.47 in - West 15.0 mph - N/A   Unknown
7:00 AM -4.4 °F -28.6 °F -8.9 °F 81% 30.42 in - West 21.9 mph - N/A   Unknown
8:00 AM -4.7 °F -18.6 °F -9.2 °F 81% 30.44 in - NW 6.9 mph - N/A   Unknown
9:00 AM -2.9 °F -27.6 °F -7.2 °F 82% 30.40 in - West 24.2 mph - N/A   Unknown
10:00 AM -1.8 °F -23.0 °F -6.7 °F 80% 30.41 in - WSW 17.3 mph - N/A   Unknown
11:00 AM -1.1 °F -24.3 °F -6.0 °F 80% 30.39 in - West 21.9 mph - N/A   Unknown
12:00 PM -0 °F - -6 °F 65% 30.36 in - WSW 21.9 mph - -  
12:00 PM -0.2 °F -23.1 °F -5.8 °F 77% 30.36 in - WSW 21.9 mph - N/A   Unknown
1:00 PM 2.3 °F -10.2 °F -2.7 °F 79% 30.37 in - WSW 6.9 mph - N/A   Unknown
2:00 PM 3.0 °F -10.5 °F -1.1 °F 83% 30.33 in - SSE 8.1 mph - N/A   Unknown
3:00 PM 4.3 °F -19.6 °F 0.7 °F 85% 30.26 in - WSW 28.8 mph - N/A   Unknown
4:00 PM 3.0 °F -23.4 °F -0.4 °F 86% 30.22 in - West 35.7 mph - N/A   Unknown
5:00 PM 3.0 °F -23.1 °F -0.6 °F 85% 30.19 in - WSW 34.5 mph - N/A   Unknown
6:00 PM 4 °F - 0 °F 76% 30.19 in - West 27.6 mph - -  
6:00 PM 3.7 °F -20.0 °F 0.1 °F 85% 30.19 in - West 27.6 mph - N/A   Unknown
7:00 PM 4.3 °F -13.2 °F 0.5 °F 84% 30.19 in - South 13.8 mph 23.0 mph N/A   Unknown
8:00 PM 5.0 °F -12.3 °F 0.9 °F 83% 30.17 in - SW 13.8 mph - N/A   Unknown
9:00 PM 3.9 °F -12.2 °F 0.3 °F 85% 30.16 in - SW 11.5 mph - N/A   Unknown
11:00 PM 3.6 °F -14.8 °F -0.0 °F 85% 30.11 in - West 15.0 mph - N/A   Unknown